When you browse on this site, cookies collect data to enhance your experience and personalize the content and advertising you see.
Visit our Privacy Policy to learn more. By continuing to use the site, you agree to this use of cookies and data.
  • In Austria
  • List of Countries
  • For 7 days
  • Water Temperature
  • Weather Map
  • News
  • Weather Widgets
  • user-avatar
    Login

    Hourly Weather El Arenal

    Today, 27 January, Monday

    Time Temperature Precipitation Wind Pressure Humidity
    00:00 +12°C° 0 mm 1 mps 589 mmHg 86%
    01:00 +12°C° 0 mm 1 mps 588 mmHg 88%
    02:00 +11°C° 0 mm 1 mps 588 mmHg 89%
    03:00 +11°C° 0 mm 1 mps 588 mmHg 90%
    04:00 +9°C° 0 mm 0 mps 588 mmHg 90%
    05:00 +9°C° 0 mm 0 mps 588 mmHg 91%
    06:00 +10°C° 0 mm 0 mps 589 mmHg 84%
    07:00 +12°C° 0 mm 0 mps 589 mmHg 78%
    08:00 +13°C° 0 mm 0 mps 590 mmHg 71%
    09:00 +16°C° 0 mm 1 mps 591 mmHg 60%
    10:00 +18°C° 0 mm 2 mps 591 mmHg 48%
    11:00 +19°C° 0 mm 3 mps 592 mmHg 36%
    12:00 +20°C° 0 mm 3 mps 591 mmHg 31%
    13:00 +21°C° 0 mm 3 mps 591 mmHg 26%
    14:00 +22°C° 0 mm 4 mps 591 mmHg 21%
    15:00 +21°C° 0 mm 3 mps 590 mmHg 27%
    16:00 +20°C° 0 mm 3 mps 590 mmHg 33%
    17:00 +19°C° 0 mm 3 mps 589 mmHg 39%
    18:00 +17°C° 0 mm 2 mps 589 mmHg 50%
    19:00 +15°C° 0 mm 2 mps 589 mmHg 61%
    20:00 +14°C° 0 mm 1 mps 589 mmHg 71%
    21:00 +13°C° 0 mm 1 mps 588 mmHg 67%
    22:00 +13°C° 0 mm 1 mps 588 mmHg 64%
    23:00 +13°C° 0 mm 1 mps 588 mmHg 60%

    Tomorrow, 28 January, Tuesday

    Time Temperature Precipitation Wind Pressure Humidity
    00:00 +12°C° 0 mm 1 mps 587 mmHg 59%
    01:00 +12°C° 0 mm 1 mps 587 mmHg 59%
    02:00 +11°C° 0 mm 1 mps 587 mmHg 58%
    03:00 +11°C° 0 mm 1 mps 586 mmHg 58%
    04:00 +11°C° 0 mm 1 mps 586 mmHg 58%
    05:00 +10°C° 0 mm 1 mps 586 mmHg 58%
    06:00 +12°C° 0 mm 1 mps 587 mmHg 52%
    07:00 +13°C° 0 mm 1 mps 588 mmHg 47%
    08:00 +14°C° 0 mm 1 mps 589 mmHg 41%
    09:00 +16°C° 0 mm 2 mps 589 mmHg 34%
    10:00 +18°C° 0 mm 2 mps 590 mmHg 26%
    11:00 +20°C° 0 mm 2 mps 590 mmHg 18%
    12:00 +20°C° 0 mm 2 mps 590 mmHg 17%
    13:00 +21°C° 0 mm 2 mps 590 mmHg 15%
    14:00 +22°C° 0 mm 3 mps 589 mmHg 14%
    15:00 +21°C° 0 mm 3 mps 589 mmHg 20%
    16:00 +19°C° 0 mm 3 mps 588 mmHg 27%
    17:00 +18°C° 0 mm 3 mps 588 mmHg 33%
    18:00 +16°C° 0 mm 3 mps 588 mmHg 46%
    19:00 +15°C° 0 mm 2 mps 588 mmHg 58%
    20:00 +13°C° 0 mm 2 mps 588 mmHg 71%
    21:00 +13°C° 0 mm 2 mps 588 mmHg 76%
    22:00 +12°C° 0 mm 1 mps 588 mmHg 82%
    23:00 +11°C° 0 mm 1 mps 588 mmHg 87%

    Day after tomorrow, 29 January, Wednesday

    Time Temperature Precipitation Wind Pressure Humidity
    00:00 +11°C° 0 mm 1 mps 588 mmHg 88%
    01:00 +11°C° 0 mm 1 mps 587 mmHg 90%
    02:00 +10°C° 0 mm 1 mps 587 mmHg 91%
    03:00 +10°C° 0 mm 1 mps 587 mmHg 90%
    04:00 +10°C° 0 mm 1 mps 587 mmHg 89%
    05:00 +10°C° 0 mm 1 mps 587 mmHg 89%
    06:00 +9°C° 0 mm 2 mps 588 mmHg 84%
    07:00 +10°C° 0 mm 2 mps 589 mmHg 79%
    08:00 +12°C° 0 mm 2 mps 589 mmHg 75%
    09:00 +13°C° 0 mm 2 mps 590 mmHg 65%
    10:00 +15°C° 0 mm 2 mps 590 mmHg 56%
    11:00 +17°C° 0 mm 2 mps 591 mmHg 46%
    12:00 +17°C° 0 mm 2 mps 590 mmHg 44%
    13:00 +18°C° 0 mm 2 mps 589 mmHg 43%
    14:00 +19°C° 0 mm 2 mps 589 mmHg 41%
    15:00 +17°C° 0 mm 2 mps 588 mmHg 47%
    16:00 +16°C° 0 mm 2 mps 587 mmHg 54%
    17:00 +13°C° 0 mm 3 mps 587 mmHg 60%
    18:00 +13°C° 0 mm 2 mps 587 mmHg 65%
    19:00 +12°C° 0 mm 1 mps 587 mmHg 69%
    20:00 +11°C° 0 mm 1 mps 587 mmHg 74%
    21:00 +11°C° 0 mm 1 mps 587 mmHg 70%
    22:00 +11°C° 0 mm 1 mps 587 mmHg 66%
    23:00 +11°C° 0 mm 1 mps 587 mmHg 62%

    30 January, Thursday

    Time Temperature Precipitation Wind Pressure Humidity
    00:00 +10°C° 0 mm 2 mps 587 mmHg 62%
    01:00 +10°C° 0 mm 2 mps 586 mmHg 61%
    02:00 +10°C° 0 mm 2 mps 586 mmHg 61%
    03:00 +9°C° 0 mm 2 mps 586 mmHg 61%
    04:00 +9°C° 0 mm 2 mps 586 mmHg 62%
    05:00 +9°C° 0 mm 2 mps 586 mmHg 62%
    06:00 +10°C° 0 mm 2 mps 587 mmHg 56%
    07:00 +13°C° 0 mm 2 mps 588 mmHg 51%
    08:00 +13°C° 0 mm 3 mps 589 mmHg 45%
    09:00 +15°C° 0 mm 4 mps 589 mmHg 35%
    10:00 +19°C° 0 mm 6 mps 590 mmHg 26%
    11:00 +21°C° 0 mm 7 mps 591 mmHg 16%
    12:00 +21°C° 0 mm 8 mps 590 mmHg 17%
    13:00 +22°C° 0 mm 8 mps 590 mmHg 18%
    14:00 +22°C° 0 mm 9 mps 589 mmHg 18%
    15:00 +21°C° 0 mm 8 mps 589 mmHg 22%
    16:00 +20°C° 0 mm 7 mps 588 mmHg 26%
    17:00 +19°C° 0 mm 5 mps 588 mmHg 30%
    18:00 +16°C° 0 mm 5 mps 588 mmHg 32%
    19:00 +15°C° 0 mm 4 mps 588 mmHg 34%
    20:00 +14°C° 0 mm 3 mps 588 mmHg 36%
    21:00 +14°C° 0 mm 3 mps 588 mmHg 35%
    22:00 +14°C° 0 mm 3 mps 588 mmHg 34%
    23:00 +15°C° 0 mm 2 mps 589 mmHg 33%

    31 January, Friday

    Time Temperature Precipitation Wind Pressure Humidity
    00:00 +14°C° 0 mm 2 mps 588 mmHg 35%
    01:00 +13°C° 0 mm 2 mps 588 mmHg 36%
    02:00 +13°C° 0 mm 2 mps 587 mmHg 38%
    03:00 +12°C° 0 mm 1 mps 587 mmHg 40%
    04:00 +12°C° 0 mm 1 mps 587 mmHg 41%
    05:00 +11°C° 0 mm 1 mps 587 mmHg 42%
    06:00 +12°C° 0 mm 1 mps 588 mmHg 41%
    07:00 +13°C° 0 mm 1 mps 589 mmHg 40%
    08:00 +14°C° 0 mm 1 mps 590 mmHg 39%
    09:00 +16°C° 0 mm 1 mps 591 mmHg 37%
    10:00 +17°C° 0 mm 2 mps 591 mmHg 35%
    11:00 +19°C° 0 mm 2 mps 592 mmHg 33%
    12:00 +18°C° 0 mm 3 mps 591 mmHg 39%
    13:00 +18°C° 0 mm 3 mps 590 mmHg 45%
    14:00 +17°C° 0 mm 4 mps 590 mmHg 50%
    15:00 +16°C° 0 mm 3 mps 589 mmHg 59%
    16:00 +13°C° 0 mm 3 mps 589 mmHg 68%
    17:00 +12°C° 0 mm 3 mps 589 mmHg 77%
    18:00 +11°C° 0.2 mm 3 mps 589 mmHg 80%
    19:00 +10°C° 0.2 mm 2 mps 590 mmHg 84%
    20:00 +9°C° 0.2 mm 2 mps 590 mmHg 88%
    21:00 +9°C° 0.1 mm 2 mps 590 mmHg 88%
    22:00 +9°C° 0.1 mm 2 mps 590 mmHg 89%
    23:00 +8°C° 0.1 mm 2 mps 590 mmHg 89%

    1 February, Saturday

    Time Temperature Precipitation Wind Pressure Humidity
    00:00 +8°C° 0 mm 2 mps 590 mmHg 89%
    01:00 +8°C° 0 mm 2 mps 589 mmHg 88%
    02:00 +8°C° 0 mm 2 mps 589 mmHg 88%
    03:00 +8°C° 0 mm 2 mps 589 mmHg 88%
    04:00 +7°C° 0 mm 2 mps 589 mmHg 89%
    05:00 +7°C° 0 mm 2 mps 589 mmHg 90%
    06:00 +7°C° 0 mm 2 mps 590 mmHg 88%
    07:00 +7°C° 0 mm 2 mps 591 mmHg 87%
    08:00 +7°C° 0 mm 2 mps 591 mmHg 86%
    09:00 +8°C° 0 mm 3 mps 592 mmHg 81%
    10:00 +9°C° 0 mm 3 mps 592 mmHg 77%
    11:00 +10°C° 0 mm 3 mps 592 mmHg 73%
    12:00 +10°C° 0 mm 3 mps 592 mmHg 73%
    13:00 +10°C° 0 mm 3 mps 591 mmHg 73%
    14:00 +10°C° 0 mm 3 mps 591 mmHg 73%
    15:00 +9°C° 0 mm 3 mps 590 mmHg 77%
    16:00 +9°C° 0 mm 3 mps 590 mmHg 80%
    17:00 +8°C° 0 mm 3 mps 590 mmHg 84%
    18:00 +8°C° 0 mm 2 mps 591 mmHg 85%
    19:00 +8°C° 0 mm 2 mps 591 mmHg 87%
    20:00 +8°C° 0 mm 2 mps 592 mmHg 88%
    21:00 +8°C° 0 mm 2 mps 592 mmHg 88%
    22:00 +8°C° 0 mm 2 mps 592 mmHg 88%
    23:00 +7°C° 0 mm 2 mps 592 mmHg 88%
    Show more